Date String (YYYY-MM-DD hh:mm:ss) UTC,Instrument flags,absolute air pressure of the measurement (hPa),sample flow rate (lpm),inlet stack bypass flow (lpm),air temperature of the measurement (°C),ambient temperature measured by the external sensor (°C),aerosol sample conditioner tube jacket temperature (°C),OPC LED temperature (°C),internal box temperature (°C),relative humidity of the measurement (%),span deviation,mass concentration of particles derived from Lorenz-Mie calculation of OPC scattering (μg/m³),mass concentration of particles derived from Lorenz-Mie calculation of OPC scattering (μg/m³),mass concentration of particles derived from Lorenz-Mie calculation of OPC scattering (μg/m³)
DateTimeUTC,F1_M11,P_M11,Q1_M11,Q2_M11,T1_M11,T2_M11,T3_M11,T4_M11,T5_M11,U1_M11,ZSPAN_M11,X2_M11,X0_M11,X1_M11
2023-12-08 10:00:00,SystemResetWarning,0820.6,4.99,000.00,021.6,020.8,000.0,029.9,023.0,14.4,0000.0,0001.43,0007.65,0000.87
2023-12-08 10:01:00,SystemResetWarning,0820.8,5.01,000.00,021.6,020.8,000.0,029.9,022.9,14.5,0000.0,0001.53,0007.88,0000.90
2023-12-08 10:02:00,SystemResetWarning,0820.8,5.01,000.00,021.6,020.8,000.0,029.9,023.0,14.6,0000.0,0001.57,0007.38,0000.93
2023-12-08 10:03:00,SystemResetWarning,0820.5,5.00,000.00,021.6,020.8,000.0,029.9,023.0,14.6,0000.0,0001.62,0007.64,0000.96
2023-12-08 10:04:00,SystemResetWarning,0820.9,4.98,000.00,021.6,020.8,000.0,029.9,022.9,14.6,0000.0,0001.67,0007.52,0000.99
2023-12-08 10:05:00,SystemResetWarning,0820.7,5.00,000.00,021.6,020.8,000.0,029.9,022.9,14.6,0000.0,0001.66,0007.45,0001.01
2023-12-08 10:06:00,SystemResetWarning,0820.7,5.00,000.00,021.6,020.8,000.0,029.9,022.9,14.6,0000.0,0001.68,0007.33,0001.03
2023-12-08 10:07:00,SystemResetWarning,0820.6,5.00,000.00,021.6,020.8,000.0,029.9,023.0,14.5,0000.0,0001.71,0006.71,0001.04
2023-12-08 10:08:00,SystemResetWarning,0820.5,5.01,000.00,021.6,020.8,000.0,029.9,023.0,14.6,0000.0,0001.69,0007.46,0001.03
2023-12-08 10:09:00,SystemResetWarning,0820.5,4.99,000.00,021.6,020.8,000.0,029.9,023.0,14.6,0000.0,0001.65,0007.77,0001.04
2023-12-08 10:10:00,SystemResetWarning,0820.6,4.99,000.00,021.6,020.8,000.0,029.9,022.9,14.6,0000.0,0001.64,0008.12,0001.04
2023-12-08 10:11:00,SystemResetWarning,0820.6,5.00,000.00,021.6,020.7,000.0,029.9,022.9,14.6,0000.0,0001.64,0007.90,0001.05
2023-12-08 10:12:00,SystemResetWarning,0820.5,5.01,000.00,021.6,020.7,000.0,029.9,022.9,14.5,0000.0,0001.61,0007.57,0001.05
2023-12-08 10:13:00,SystemResetWarning,0820.6,5.01,000.00,021.6,020.7,000.0,029.9,023.0,14.5,0000.0,0001.58,0007.51,0001.05
2023-12-08 10:14:00,SystemResetWarning,0820.8,5.00,000.00,021.6,020.8,000.0,029.9,023.0,14.4,0000.0,0001.59,0007.07,0001.05
2023-12-08 10:15:00,SystemResetWarning,0820.5,5.00,000.00,021.6,020.8,000.0,029.9,023.0,14.4,0000.0,0001.63,0007.18,0001.05
2023-12-08 10:16:00,SystemResetWarning,0820.5,4.99,000.00,021.6,020.8,000.0,029.9,023.0,14.4,0000.0,0001.62,0006.94,0001.04
2023-12-08 10:17:00,SystemResetWarning,0820.5,5.00,000.00,021.7,020.8,000.0,029.9,023.0,14.4,0000.0,0001.59,0006.84,0001.03
2023-12-08 10:18:00,SystemResetWarning,0820.5,5.01,000.00,021.7,020.8,000.0,029.9,023.0,14.3,0000.0,0001.56,0006.82,0001.03
2023-12-08 10:19:00,SystemResetWarning,0820.5,5.01,000.00,021.7,020.8,000.0,030.0,023.0,14.3,0000.0,0001.57,0005.77,0001.03
2023-12-08 10:20:00,SystemResetWarning,0820.5,5.00,000.00,021.7,020.8,000.0,030.0,023.0,14.4,0000.0,0001.60,0005.54,0001.03
2023-12-08 10:21:00,SystemResetWarning,0820.6,4.99,000.00,021.6,020.8,000.0,029.9,023.0,14.3,0000.0,0001.65,0005.59,0001.03
2023-12-08 10:22:00,SystemResetWarning,0820.8,5.00,000.00,021.6,020.8,000.0,029.9,023.0,14.3,0000.0,0001.68,0005.18,0001.05
2023-12-08 10:23:00,SystemResetWarning,0820.7,5.02,000.00,021.7,020.8,000.0,029.9,023.0,14.3,0000.0,0001.72,0004.96,0001.06
2023-12-08 10:24:00,SystemResetWarning,0820.6,5.01,000.00,021.7,020.8,000.0,030.0,023.0,14.3,0000.0,0001.77,0005.54,0001.07
2023-12-08 10:25:00,SystemResetWarning,0820.5,4.99,000.00,021.7,020.8,000.0,030.0,023.0,14.3,0000.0,0001.80,0005.65,0001.07
2023-12-08 10:26:00,SystemResetWarning,0820.6,4.99,000.00,021.7,020.8,000.0,030.0,023.0,14.2,0000.0,0001.78,0005.13,0001.08
2023-12-08 10:27:00,SystemResetWarning,0820.6,5.01,000.00,021.7,020.8,000.0,030.0,023.0,13.8,0000.0,0001.80,0005.27,0001.08
2023-12-08 10:28:00,SystemResetWarning,0820.5,5.01,000.00,021.7,020.8,000.0,030.0,023.0,14.1,0000.0,0001.83,0005.32,0001.08
2023-12-08 10:29:00,SystemResetWarning,0820.7,4.99,000.00,021.7,020.8,000.0,030.0,023.0,14.2,0000.0,0001.87,0006.48,0001.09
2023-12-08 10:30:00,SystemResetWarning,0820.5,4.99,000.00,021.7,020.8,000.0,030.0,023.0,14.2,0000.0,0001.90,0007.33,0001.11
2023-12-08 10:31:00,SystemResetWarning,0820.7,4.99,000.00,021.7,020.8,000.0,030.0,023.0,14.1,0000.0,0001.91,0007.25,0001.12
2023-12-08 10:32:00,SystemResetWarning,0820.9,5.01,000.00,021.7,020.8,000.0,030.0,023.0,14.1,0000.0,0001.94,0006.78,0001.13
2023-12-08 10:33:00,SystemResetWarning,0820.8,5.01,000.00,021.7,020.8,000.0,030.0,023.0,14.1,0000.0,0001.95,0006.75,0001.12
2023-12-08 10:34:00,SystemResetWarning,0820.7,5.00,000.00,021.7,020.8,000.0,030.0,023.0,14.1,0000.0,0002.00,0007.00,0001.13
2023-12-08 10:35:00,SystemResetWarning,0820.8,4.99,000.00,021.7,020.8,000.0,030.0,023.0,14.0,0000.0,0001.99,0006.52,0001.13
2023-12-08 10:36:00,SystemResetWarning,0820.7,4.99,000.00,021.7,020.8,000.0,030.0,023.0,13.5,0000.0,0002.02,0006.46,0001.14
2023-12-08 10:37:00,SystemResetWarning,0820.5,5.00,000.00,021.7,020.8,000.0,030.0,023.0,13.8,0000.0,0002.03,0006.43,0001.14
2023-12-08 10:38:00,SystemResetWarning,0820.5,5.00,000.00,021.7,020.8,000.0,030.0,023.0,13.9,0000.0,0002.03,0007.73,0001.15
2023-12-08 10:39:00,SystemResetWarning,0820.7,5.01,000.00,021.7,020.8,000.0,030.0,023.0,14.0,0000.0,0002.05,0007.89,0001.16
2023-12-08 10:40:00,SystemResetWarning,0820.6,5.01,000.00,021.7,020.8,000.0,030.0,023.1,14.0,0000.0,0002.02,0007.29,0001.17
2023-12-08 10:41:00,SystemResetWarning,0820.6,5.01,000.00,021.7,020.8,000.0,030.0,023.0,14.0,0000.0,0001.99,0006.46,0001.16
2023-12-08 10:42:00,SystemResetWarning,0820.8,5.00,000.00,021.7,020.8,000.0,030.0,023.0,14.0,0000.0,0002.00,0007.22,0001.16
2023-12-08 10:43:00,SystemResetWarning,0820.5,4.99,000.00,021.7,020.8,000.0,030.0,023.0,14.0,0000.0,0001.98,0007.08,0001.17
2023-12-08 10:44:00,SystemResetWarning,0820.8,5.00,000.00,021.7,020.8,000.0,030.0,023.0,13.9,0000.0,0001.97,0006.95,0001.18
2023-12-08 10:45:00,SystemResetWarning,0820.6,5.00,000.00,021.7,020.8,000.0,030.0,023.0,13.9,0000.0,0001.95,0006.81,0001.19
2023-12-08 10:46:00,SystemResetWarning,0820.5,5.01,000.00,021.7,020.8,000.0,030.0,023.0,13.9,0000.0,0001.90,0006.79,0001.18
2023-12-08 10:47:00,SystemResetWarning,0820.8,5.01,000.00,021.7,020.8,000.0,030.0,023.0,14.0,0000.0,0001.86,0006.87,0001.17
2023-12-08 10:48:00,SystemResetWarning,0820.7,5.01,000.00,021.7,020.8,000.0,030.0,023.0,13.6,0000.0,0001.86,0007.22,0001.18
2023-12-08 10:49:00,SystemResetWarning,0820.6,5.00,000.00,021.7,020.8,000.0,030.0,023.0,13.6,0000.0,0001.83,0005.52,0001.18
2023-12-08 10:50:00,SystemResetWarning,0820.6,5.00,000.00,021.7,020.8,000.0,030.0,023.0,13.8,0000.0,0001.82,0005.00,0001.18
2023-12-08 10:51:00,SystemResetWarning,0820.6,5.00,000.00,021.7,020.8,000.0,030.0,023.0,13.8,0000.0,0001.86,0005.41,0001.19
2023-12-08 10:52:00,SystemResetWarning,0820.6,5.00,000.00,021.7,020.8,000.0,030.0,023.0,13.9,0000.0,0001.90,0006.58,0001.20
2023-12-08 10:53:00,SystemResetWarning,0820.6,4.99,000.00,021.7,020.8,000.0,030.0,023.0,13.9,0000.0,0001.92,0006.15,0001.20
2023-12-08 10:54:00,SystemResetWarning,0820.6,4.99,000.00,021.7,020.8,000.0,030.0,023.0,13.9,0000.0,0001.94,0005.93,0001.20
2023-12-08 10:55:00,SystemResetWarning,0820.6,4.99,000.00,021.7,020.8,000.0,030.0,023.0,13.8,0000.0,0001.95,0006.02,0001.19
2023-12-08 10:56:00,SystemResetWarning,0820.6,5.00,000.00,021.7,020.8,000.0,030.0,023.0,13.8,0000.0,0001.90,0005.90,0001.19
2023-12-08 10:57:00,SystemResetWarning,0820.6,5.00,000.00,021.7,020.8,000.0,030.0,023.0,13.8,0000.0,0001.90,0005.68,0001.20
2023-12-08 10:58:00,SystemResetWarning,0820.6,5.00,000.00,021.7,020.8,000.0,030.0,023.0,13.7,0000.0,0001.91,0005.67,0001.20
2023-12-08 10:59:00,SystemResetWarning,0820.8,5.00,000.00,021.7,020.8,000.0,030.0,023.0,13.8,0000.0,0001.90,0006.53,0001.18
